Location: San Antonio
(29.4240°N, 98.4930°W)
Time: 02:17:44
(UTC-05:00)

DUCHIFAT 1 - Pass Details

Date: 13 August 2024
Orbit: 522 x 542 km, 98.1° (Epoch: 15 September)

Event Time Altitude Azimuth Distance (km) Brightness Sun altitude
Rises 05:38:45 0° 34° (NNE) 2,714 ? -17.4°
Reaches altitude 10° 05:41:31 10° 54° (NE) 1,811 ? -16.9°
Maximum altitude 05:44:05 17° 96° (E) 1,414 ? -16.4°
Drops below altitude 10° 05:46:39 10° 138° (SE) 1,791 ? -15.9°
Sets 05:49:20 0° 158° (SSE) 2,670 ? -15.4°
